CZ-6A DEB

Satellite information

Favourite Embed

Satellite Type and Status

DEBRISIN ORBIT

Key statistics

Satellite CZ-6A DEB at a glance.

Uptime

444

Days in orbit

Revolutions

≈ 14.2

Per day

Orbit

LEO

Low Earth Orbit

Inclination

89.0

Latest

Satellite identification and parameters

Extended collection of information and parameters for CZ-6A DEB.

Object identification

Identified? True

Debris? True

Object name: CZ-6A DEB

International designator: 2024-140KL

Object number (NORAD): 60881

Object ID (CCSDS): 60881

Country: PEOPLES REPUBLIC OF CHINA (PRC)

Current information (Y/N): Y

RCS size: SMALL

Orbital parameters

Period: 101.14 minutes

Inclination: 89.0003 deg

SMA: 7190.775 km

Apoapsis: 835.561 km

Periapsis: 789.719 km

RAAN: 301.3464 deg

Eccentricy: 0.0031876

Argument of periapsis: 225.7012 deg

Mean anomaly: 134.1566 deg

Mean motion: 14.23767955 rev/day

Mean motion (dot): 0.0000231 rev/day2

B* drag term: 0.00099978 1/REarth

Two-line elements (TLE)

Creation date: Oct. 23, 2025, 10:16 p.m.

Reference frame: TEME

Reference center: EARTH

Epoch: Oct. 23, 2025, 10:56 a.m. UTC

TLE line 0: 0 CZ-6A DEB

TLE line 1: 1 60881U 24140KL 25296.45561934 .00002310 00000-0 99978-3 0 9996

TLE line 2: 2 60881 89.0003 301.3464 0031876 225.7012 134.1566 14.23767955 59504

Live tracking on map

Real-time ground track for satellite CZ-6A DEB.

In-orbit conjunctions

A list of the most updated potential collisions computed for object CZ-6A DEB.

Target Orbit TCA Probability of collision Miss distance Type
DMSP 5D-2 F13 DEB SSO 2025-06-01 02:59:59 0.0001102151 190.0 (m) DEBRIS
THOR ABLESTAR DEB LEO 2025-02-01 09:28:15 0.002508966 55.0 (m) DEBRIS

Associated space launch

18 Low Earth Orbit communication satellites with Ku, Q and V band payloads for the G60 constellation operated by Shanghai Spacecom Satellite Technology (SSST) with funding backed by the Shanghai local government. Initial constellation will consist of 1296 satellites by 2027 with long term plans to expand it to 12000 satellites.

CZ-6A DEB was lifted into orbit during the mission ‘Long March 6A | G60 Polar Group 01’, on board a Long March 6A space rocket.

The launch took place on Aug. 6, 2024, 6:42 a.m. from Launch Complex 9A.

For more information about the launch, click the button.

Launch to space Long March 6A | G60 Polar Group 01
Long March 6A | G60 Polar Group 01

Agency: N/A

Status: Launch Successful

Launch date: Aug. 6, 2024, 6:42 a.m. UTC

Rocket: Long March 6A

Launch pad: Launch Complex 9A

Location: Taiyuan Satellite Launch Center, People's Republic of China

...

Latest news about this satellite

News about space launch
Brightness of first Chinese broadband constellation satellites alarms astronomers

The first satellites of a Chinese broadband constellation are significantly brighter than those of Western systems, posing a new challenge for astronomers.

News about space launch
Chinese rocket stage breaks up into cloud of more than 700 pieces of space debris

HELSINKI — A Chinese Long March 6A rocket’s upper stage has fragmented into a cloud of over 700 pieces of space debris, adding to concerns about long-term orbital safety. China […]

News about space launch
China's Thousand Sails Megaconstellation Kicks Off with Dangerous Debris Field

China's Thousand Sails Megaconstellation Kicks Off with Dangerous Debris Field


Newsletter sign-up

Weekly statistics, charts and insights to help you stay on top of the space industry.